GFSNIL_sfc_temp_000.txt.gz
Temp
60 57 57 57 57 56 56 57 59 60 61 62 62 62 61 61 61 61 62 62 62 61
60 58 58 58 57 57 57 59 60 61 61 61 62 62 62 61 62 62 62 61 62 63
61 60 59 58 58 58 58 60 60 61 61 61 62 62 61 62 64 64 61 62 63 62
61 60 59 59 59 59 59 59 61 61 61 61 61 61 62 63 63 62 62 62 63 62
63 60 59 59 59 59 59 60 61 61 61 61 61 61 61 63 63 63 62 62 63 61
61 60 59 59 59 59 60 60 61 62 61 61 61 61 61 62 62 62 62 63 62 62
61 60 59 59 59 60 61 61 61 62 62 62 62 61 61 61 62 63 62 62 62 63
60 61 60 60 60 60 61 61 62 62 62 62 62 62 61 62 63 63 62 62 63 63
61 62 61 60 60 60 61 61 62 62 62 61 62 50 54 59 62 63 62 61 61 61
62 63 61 61 60 60 59 60 61 61 62 61 59 47 50 53 63 62 61 61 62 62
64 63 62 61 60 58 58 59 59 59 61 60 57 47 48 53 62 62 62 62 63 63
64 62 61 60 58 58 57 57 58 59 60 60 57 46 46 57 63 62 62 63 61 63
64 62 61 59 58 58 58 58 59 59 60 56 59 45 47 57 63 60 60 60 60 53
62 61 61 58 58 58 57 57 57 57 57 59 58 54 45 50 62 61 60 61 61 61

GFSNIL_sfc_temp_003.txt.gz
Temp
71 73 72 69 69 68 69 69 69 69 70 70 71 71 69 70 71 70 68 69 69 71
71 69 70 67 67 69 68 69 69 70 70 71 71 71 69 69 69 70 70 68 67 67
72 71 70 68 67 68 68 69 69 70 70 71 71 71 70 68 69 68 70 68 69 67
73 72 70 69 69 69 69 69 70 71 71 71 71 70 69 68 67 67 69 69 66 66
73 71 69 70 69 70 70 70 71 71 71 71 71 70 69 67 66 65 64 65 64 64
72 71 70 70 69 70 70 71 71 71 71 71 70 70 70 70 66 65 66 67 64 66
72 72 71 70 70 70 71 71 72 71 71 71 71 70 70 69 66 65 66 66 67 68
72 72 71 70 71 71 71 72 72 71 72 71 71 71 70 70 67 67 65 68 69 69
73 73 71 70 71 71 71 71 72 71 71 70 71 50 54 65 68 69 69 68 68 67
74 73 72 72 71 70 69 70 70 70 71 69 68 48 49 53 69 66 67 69 68 68
77 75 73 72 71 69 69 69 69 69 70 69 67 46 48 51 67 64 64 69 70 69
77 75 73 72 70 69 69 69 69 69 68 68 64 46 47 59 65 65 65 69 70 71
78 76 74 72 70 69 70 70 72 69 70 60 64 45 46 59 69 66 66 64 63 54
76 75 75 71 70 69 69 68 68 68 68 68 65 60 45 50 63 67 68 67 69 68

GFSNIL_sfc_temp_006.txt.gz
Temp
77 80 79 76 78 78 73 77 75 74 75 75 76 76 74 74 73 74 73 72 73 73
77 77 76 74 74 76 76 76 75 75 75 77 77 76 74 74 72 72 73 72 72 72
77 77 76 75 74 74 74 75 75 75 77 77 77 77 74 71 72 72 73 74 69 73
78 78 76 75 75 74 74 75 76 76 76 78 76 75 73 71 72 73 71 72 70 73
79 77 74 75 75 75 75 76 77 77 77 78 78 76 73 71 69 70 70 67 71 73
77 76 75 75 75 76 76 76 78 78 77 77 76 74 73 71 66 67 70 70 72 73
77 77 76 76 75 76 77 77 77 78 77 77 76 76 74 70 65 68 70 70 72 73
78 78 77 76 76 77 77 77 78 77 78 77 76 74 72 70 72 71 67 67 67 67
79 78 76 75 76 76 76 77 77 77 77 75 77 51 56 66 72 73 72 70 67 68
79 78 77 77 77 76 75 76 75 76 76 74 71 49 50 53 72 72 70 72 70 67
82 79 79 78 76 75 75 73 71 72 74 71 68 48 48 52 72 73 71 71 73 70
82 80 79 77 75 75 75 73 73 73 72 73 69 47 48 58 67 72 69 74 73 71
83 81 79 77 75 75 76 75 78 74 74 62 70 47 47 57 70 68 66 71 73 52
83 81 80 78 76 76 76 76 75 73 72 72 68 63 46 49 70 68 73 74 74 70

GFSNIL_sfc_temp_009.txt.gz
Temp
79 81 81 78 81 75 76 70 76 77 76 75 75 75 75 73 74 74 72 72 73 74
79 80 76 76 76 77 75 77 77 77 76 76 76 77 75 73 73 74 73 73 73 74
79 79 78 77 77 77 77 78 77 77 76 77 78 77 74 72 73 71 73 75 74 74
75 79 78 76 77 77 76 77 77 78 78 79 78 77 74 72 73 72 70 69 72 75
74 79 76 75 76 78 76 78 79 79 79 79 75 75 73 71 72 72 72 74 75 74
79 78 76 75 74 77 78 78 79 80 79 77 75 73 68 68 71 71 72 73 73 73
78 78 76 78 77 78 79 78 76 80 76 76 74 74 74 67 71 68 70 70 74 73
80 80 79 78 78 79 79 75 76 75 77 77 77 75 75 71 71 65 65 68 68 67
80 80 79 78 74 73 73 73 75 76 74 73 77 51 54 62 69 67 67 66 64 65
81 79 79 79 78 77 74 74 77 78 73 75 71 50 50 53 72 70 70 68 69 67
83 80 78 76 76 75 74 72 74 76 73 73 68 49 49 52 72 71 71 71 72 67
84 81 79 77 76 74 72 71 72 73 73 73 69 49 47 59 71 68 70 72 70 72
85 82 80 78 77 77 75 75 71 71 73 65 70 48 46 56 68 69 67 71 70 54
84 82 80 78 77 77 77 77 72 72 73 72 70 63 47 48 71 71 71 72 70 69

GFSNIL_sfc_temp_015.txt.gz
Temp
66 65 64 64 62 62 61 61 63 63 64 65 66 65 64 62 61 62 61 61 60 59
65 64 64 63 63 62 62 64 64 64 64 66 66 66 64 61 61 62 61 60 61 60
65 66 65 64 63 63 62 67 64 64 64 65 67 65 63 62 63 62 61 62 63 61
65 66 65 64 64 64 63 65 66 66 67 68 68 65 63 62 63 62 62 62 62 63
65 65 64 64 68 65 64 65 66 67 70 70 66 62 63 62 63 63 62 63 63 63
66 67 63 64 67 65 65 65 69 69 70 67 64 63 62 63 63 62 61 62 62 63
67 66 63 64 68 65 66 65 69 68 69 66 66 65 65 65 62 61 61 62 62 64
66 68 67 68 67 66 66 69 70 68 68 63 63 64 62 63 62 61 61 61 61 62
66 70 68 68 68 68 65 69 69 67 63 61 64 50 53 60 62 62 61 61 61 61
68 68 68 69 67 66 65 67 66 63 60 58 56 48 49 52 63 62 61 60 62 62
71 70 69 68 63 63 62 64 64 61 60 58 55 48 47 52 63 63 62 62 62 62
73 69 67 67 62 62 62 62 62 61 59 58 55 48 46 58 63 63 62 62 63 63
72 71 66 63 62 62 62 63 62 62 60 56 56 48 46 56 62 60 60 60 60 53
68 66 66 63 63 62 62 62 61 61 60 59 57 53 46 50 62 61 59 59 60 57

GFSNIL_sfc_temp_021.txt.gz
Temp
63 63 63 62 61 60 59 59 60 60 60 60 61 61 60 60 59 58 58 57 56 56
62 62 61 60 60 59 59 60 60 60 60 61 61 61 60 60 59 59 58 58 57 56
61 61 60 60 60 59 59 60 60 60 60 61 61 62 60 60 59 59 58 59 59 57
60 60 60 59 59 59 59 60 61 61 61 61 62 62 60 60 60 60 59 60 60 60
60 60 59 59 59 60 60 60 61 62 62 65 63 61 60 61 61 60 60 60 60 60
60 59 59 59 59 60 60 60 61 63 64 63 62 61 62 61 60 60 60 60 60 60
60 62 59 60 60 60 61 61 61 64 63 62 62 62 63 62 61 59 59 60 61 60
61 63 60 60 60 61 61 62 66 63 60 60 60 59 60 61 60 59 59 61 61 60
63 62 62 61 60 60 60 65 65 62 60 58 59 49 49 58 60 61 60 60 60 59
63 62 64 63 62 60 62 64 62 58 58 56 56 46 50 52 61 60 60 60 60 59
64 64 66 65 60 58 62 61 59 56 56 56 55 45 50 53 59 61 60 60 60 59
64 63 62 60 58 58 58 57 56 56 56 57 56 45 50 57 60 61 60 61 61 61
64 63 61 59 58 58 58 58 58 56 57 53 56 45 47 56 61 60 59 59 58 51
63 62 60 59 58 58 58 58 57 56 56 57 56 53 47 49 60 60 59 58 58 55

GFSNIL_sfc_temp_024.txt.gz
Temp
64 65 63 64 63 61 61 61 62 63 62 62 63 63 62 61 61 61 60 60 59 59
62 63 62 61 61 61 61 62 61 62 61 62 63 63 62 61 62 61 61 60 60 59
61 62 62 62 61 61 61 62 61 61 62 63 63 63 63 62 62 61 61 61 60 60
61 61 61 61 61 61 61 61 62 63 63 63 63 63 62 62 62 62 61 61 61 62
61 61 60 60 60 61 61 62 63 64 65 65 64 64 63 63 63 62 62 62 62 62
60 60 59 60 60 61 61 62 64 64 65 65 64 64 63 62 63 62 62 63 62 63
60 60 60 60 61 61 62 62 64 64 64 64 63 63 63 63 62 61 62 63 63 63
61 61 61 61 61 61 62 63 65 64 62 62 62 60 60 63 62 61 61 62 62 62
62 62 61 61 61 61 62 63 65 63 62 61 61 47 51 58 62 61 61 60 60 60
63 62 63 62 61 61 61 64 62 60 61 60 59 45 50 53 61 61 61 60 60 59
64 63 64 63 61 61 62 62 61 59 59 60 56 46 50 52 62 61 60 60 59 58
64 63 63 61 60 60 60 61 60 59 59 61 58 47 49 57 61 60 60 60 60 60
65 63 62 60 60 60 60 60 59 58 60 54 58 46 48 57 61 59 58 59 58 51
64 63 62 60 61 60 60 59 59 58 58 59 56 53 46 51 61 60 59 58 57 55

GFSNIL_sfc_temp_027.txt.gz
Temp
73 76 75 75 76 76 76 75 73 74 74 73 73 73 72 72 72 71 71 69 69 71
74 73 75 73 74 76 74 74 73 73 73 73 73 72 71 73 71 71 69 69 69 70
73 74 73 73 73 73 72 73 72 72 72 72 73 73 71 70 71 70 71 71 69 69
73 73 74 73 73 73 72 72 73 73 73 73 73 72 71 70 71 68 70 70 70 69
73 73 72 72 72 73 72 73 73 74 74 74 74 73 71 71 70 67 70 71 70 71
72 72 71 71 71 73 72 73 74 75 74 74 73 73 71 64 65 67 71 71 70 71
72 72 71 71 72 73 74 74 74 74 74 73 73 72 68 67 66 65 71 71 71 71
71 72 72 72 72 73 73 74 75 73 73 72 72 68 66 70 66 63 67 67 71 71
73 72 72 71 71 72 73 73 72 71 72 71 71 48 51 59 66 66 65 64 66 65
73 72 70 73 72 72 71 69 67 71 71 70 68 46 48 53 64 64 64 63 63 63
75 73 73 73 72 70 71 65 67 69 70 69 62 48 48 52 65 63 62 62 63 63
75 74 72 72 71 70 65 64 67 70 69 68 62 48 48 57 62 62 60 61 60 61
76 74 73 72 70 70 71 67 70 68 68 57 62 46 48 58 63 61 60 60 60 51
75 74 73 71 70 70 69 69 68 67 67 64 60 58 46 51 64 63 60 58 58 55

GFSNIL_sfc_temp_030.txt.gz
Temp
81 84 83 82 82 81 81 81 79 79 79 80 80 79 77 78 78 77 76 73 73 74
82 82 82 79 81 83 82 81 80 80 79 79 79 78 76 79 76 77 73 72 72 71
81 81 80 80 80 80 79 80 79 79 78 78 78 78 76 78 76 73 72 75 73 72
80 81 81 80 80 79 79 79 79 79 78 78 78 77 75 75 75 73 73 75 74 73
80 80 79 79 79 79 78 80 80 80 80 80 79 77 77 76 77 73 70 75 75 74
79 78 77 78 78 79 79 79 80 80 80 80 80 78 77 76 74 68 72 74 75 75
78 78 78 78 78 78 79 79 79 80 81 80 79 79 77 73 74 73 74 75 77 77
78 79 78 78 78 79 79 80 81 80 79 79 78 79 75 75 74 68 71 73 77 77
79 79 77 77 77 77 78 79 80 79 79 76 79 50 50 60 69 72 72 72 73 72
79 78 77 78 78 77 76 76 76 77 77 76 74 48 48 53 67 67 68 67 67 71
79 77 77 78 77 76 76 74 73 75 76 75 69 49 48 52 67 64 64 66 68 70
81 79 78 77 75 75 73 73 74 76 75 74 69 48 48 58 63 61 60 62 66 69
82 79 78 77 76 76 75 74 79 75 74 60 68 47 49 58 63 61 61 61 64 52
81 79 78 77 76 76 76 76 74 74 73 69 65 61 48 52 64 62 61 60 60 58

GFSNIL_sfc_temp_033.txt.gz
Temp
85 87 82 80 78 76 77 78 79 80 80 81 81 82 80 80 79 78 77 76 75 77
83 85 82 80 80 82 82 81 80 79 80 81 82 81 78 80 77 78 76 75 74 74
80 82 80 80 76 77 80 81 80 80 80 81 81 80 77 79 78 77 73 72 73 73
77 78 79 79 79 81 81 81 82 81 80 80 79 79 77 78 78 76 73 72 74 74
79 80 80 80 81 82 81 82 82 82 81 81 81 79 78 77 78 75 72 72 74 75
78 81 80 80 80 81 81 81 82 82 81 82 82 80 79 77 77 75 74 70 72 77
77 78 80 80 80 80 81 81 81 82 83 83 82 80 78 77 75 73 71 73 73 78
81 81 81 80 80 80 80 82 83 82 79 80 80 78 76 76 73 73 70 71 75 77
81 81 79 79 77 79 80 79 77 75 78 78 76 50 52 63 73 72 69 72 73 72
82 76 74 74 75 79 75 74 74 75 79 75 70 50 51 55 70 71 69 71 71 75
78 75 75 75 78 74 73 75 75 77 76 73 66 50 50 53 69 68 68 69 70 72
77 75 76 78 76 72 75 74 74 76 75 73 67 49 51 61 65 62 63 68 69 69
84 76 77 78 71 73 76 76 77 75 74 60 68 48 50 58 62 61 60 62 64 49
79 80 78 75 71 73 76 76 72 73 72 68 66 60 49 51 63 63 64 60 63 66

GFSNIL_sfc_temp_036.txt.gz
Temp
79 81 81 77 75 73 72 72 72 73 74 75 75 75 73 71 70 70 71 71 69 67
80 80 77 75 73 74 74 74 72 75 75 75 75 74 72 70 71 71 71 70 69 68
80 80 77 76 74 75 75 76 75 75 75 74 75 74 73 72 72 71 69 69 68 68
78 78 78 76 75 75 75 75 75 76 75 75 74 74 71 72 71 71 68 68 67 68
75 74 74 74 74 75 75 76 77 78 77 77 76 74 73 72 73 70 69 68 67 68
74 72 72 72 75 77 77 77 78 78 77 77 75 73 73 73 72 71 69 69 67 69
73 74 74 76 76 76 77 76 76 77 78 77 74 74 74 73 70 70 68 69 68 69
73 74 77 76 76 76 76 77 78 76 73 73 68 70 70 72 70 67 65 67 68 68
78 77 75 75 74 75 76 74 72 71 71 70 68 49 52 62 68 69 68 65 66 63
78 73 72 73 73 74 71 70 70 70 69 67 63 49 51 55 68 67 67 67 66 67
74 72 72 72 72 71 70 70 69 69 68 66 60 49 51 55 67 67 68 68 68 67
76 72 71 71 69 70 68 68 69 70 69 65 62 49 52 60 63 64 64 63 63 67
77 75 72 69 69 70 69 70 69 68 68 58 63 48 50 57 60 59 59 62 62 51
74 72 70 70 70 69 70 69 68 67 67 66 63 57 49 52 64 62 62 60 61 57

GFSNIL_sfc_temp_042.txt.gz
Temp
68 70 67 66 66 67 68 67 67 67 67 68 68 68 68 66 66 65 63 63 63 63
67 65 67 67 66 66 66 68 66 67 67 68 70 69 67 65 65 65 62 62 61 60
66 66 66 67 67 67 67 68 66 66 67 69 69 68 67 65 66 65 61 61 61 61
67 67 67 67 67 67 66 66 67 66 67 68 66 65 65 66 65 63 61 61 61 61
68 67 66 66 67 68 66 66 67 68 68 69 68 67 66 63 64 62 61 61 62 62
68 68 67 68 68 68 67 67 68 69 69 70 69 68 66 64 63 62 62 62 62 62
67 68 68 69 69 68 69 69 70 71 71 71 69 65 65 64 63 62 63 63 63 65
68 69 70 69 69 69 69 70 69 66 65 65 65 65 65 64 63 62 61 62 63 64
70 71 69 69 68 68 65 64 63 62 63 62 62 49 54 59 61 61 61 60 60 60
71 70 69 69 65 62 61 62 61 63 62 58 55 48 49 54 61 60 60 60 60 62
72 70 69 66 62 61 64 63 62 60 58 56 55 48 50 54 61 60 60 61 62 61
72 66 68 66 64 65 63 61 59 57 56 57 57 48 50 56 59 58 57 60 61 61
72 69 67 66 65 63 60 60 60 58 57 53 56 47 48 55 59 58 57 56 57 52
70 68 67 66 64 60 60 60 58 57 56 57 57 53 46 50 58 58 59 56 56 54

GFSNIL_sfc_temp_045.txt.gz
Temp
70 70 69 64 63 64 64 64 66 67 67 67 67 67 66 66 65 65 65 65 64 63
63 64 64 62 64 64 65 65 66 66 67 67 67 67 65 65 65 65 63 62 61 60
65 64 63 64 64 65 64 66 66 66 66 66 67 67 67 66 65 62 62 62 60 60
62 63 64 65 65 65 66 66 66 67 66 66 66 67 66 65 64 64 62 60 60 60
64 65 65 65 65 65 65 66 67 68 68 67 68 66 65 63 64 62 60 60 60 60
65 65 64 65 65 66 66 68 68 67 67 68 66 64 65 66 63 61 61 61 60 61
66 66 66 66 67 66 67 66 66 67 67 68 67 67 66 64 61 61 61 62 61 61
66 66 67 67 67 66 67 67 68 67 67 67 66 65 62 62 61 60 60 61 62 62
66 67 67 67 65 66 65 67 67 65 65 61 60 51 54 60 60 60 60 59 60 60
67 66 66 67 66 66 64 62 60 58 58 57 55 47 49 53 60 59 59 58 58 59
68 67 67 67 65 63 61 59 58 57 58 57 55 47 48 51 59 58 58 58 59 59
69 67 66 65 62 60 59 58 57 58 57 57 56 47 47 55 57 57 58 59 60 61
69 68 65 63 60 59 59 59 58 56 58 54 56 45 47 54 57 57 57 57 56 50
68 64 62 60 62 61 59 57 56 56 57 58 55 52 46 49 58 58 56 56 55 52

GFSNIL_sfc_temp_048.txt.gz
Temp
69 72 72 71 67 66 65 65 66 68 68 68 68 68 68 67 67 66 66 66 65 64
65 67 66 64 63 63 64 66 67 68 67 68 68 68 68 67 66 67 65 66 65 65
64 65 66 62 63 64 65 67 67 67 68 68 69 68 67 66 67 66 64 65 64 63
62 63 63 64 64 65 65 66 67 68 68 68 68 68 67 67 66 65 65 64 64 64
61 62 63 64 65 66 66 67 68 68 69 69 68 67 67 66 66 66 64 63 63 63
62 63 63 64 65 66 66 67 68 69 69 69 68 68 67 67 66 65 64 64 63 64
63 64 64 65 66 66 68 68 68 69 69 68 68 67 67 66 65 64 64 64 64 64
65 66 66 66 66 67 68 68 68 68 68 68 68 67 66 65 64 63 63 63 64 65
67 68 67 66 66 66 66 66 67 67 67 66 64 51 54 61 63 64 63 63 63 64
68 67 67 66 65 65 65 66 65 64 65 61 58 48 49 52 63 63 63 63 62 62
66 66 65 65 64 64 63 62 60 60 59 58 55 46 47 51 63 62 62 62 62 63
66 64 64 63 63 62 60 59 58 59 59 58 56 46 46 56 61 60 61 62 62 63
66 65 64 63 61 60 59 58 58 59 60 54 57 45 46 56 59 59 59 60 58 51
65 64 64 62 61 60 58 58 57 58 58 58 56 52 46 49 61 59 59 59 57 55

GFSNIL_sfc_temp_051.txt.gz
Temp
73 76 76 77 78 78 80 81 80 76 78 78 78 77 76 76 76 76 75 73 71 74
73 74 78 77 77 80 79 81 78 79 78 78 78 77 75 77 74 74 75 72 72 70
73 74 76 77 76 77 77 78 78 78 78 77 77 77 75 75 76 75 76 71 69 71
73 75 75 75 76 77 77 78 78 79 78 78 77 76 75 75 76 75 72 72 74 74
73 73 73 73 75 77 76 78 79 79 79 79 78 77 76 76 76 73 72 72 73 73
71 71 71 73 74 76 77 78 79 79 78 78 78 76 73 77 74 70 70 68 70 73
72 72 73 74 74 76 78 77 78 78 79 79 78 75 72 71 72 75 72 70 74 74
73 73 74 75 75 76 76 78 78 78 78 78 76 74 76 76 75 73 72 72 74 74
74 74 74 72 72 73 76 76 77 76 76 74 76 52 57 67 73 74 73 72 73 73
74 73 70 70 71 72 71 72 72 70 72 73 67 49 51 55 75 74 73 73 72 72
74 71 69 70 72 71 72 72 71 71 71 67 58 47 47 51 74 74 73 72 72 72
72 69 69 70 70 69 67 68 66 64 64 65 61 45 46 60 73 72 71 71 72 72
71 70 70 69 67 67 66 63 67 67 69 58 61 44 46 62 72 69 66 65 66 51
71 70 67 66 64 63 64 64 63 63 63 63 62 56 46 50 72 70 66 69 66 67

GFSNIL_sfc_temp_057.txt.gz
Temp
78 80 82 82 84 87 90 93 90 85 84 86 87 86 85 85 83 82 81 81 81 87
79 78 79 79 81 86 84 89 90 89 85 86 86 86 84 82 82 83 82 81 82 82
79 80 79 80 79 80 83 84 84 87 86 83 84 84 82 83 84 82 84 84 81 79
79 80 81 80 82 82 81 83 85 85 84 83 83 83 82 83 85 83 82 83 81 79
80 80 79 80 80 82 82 83 84 85 86 86 85 84 83 82 87 83 81 81 81 79
79 79 78 78 79 82 83 84 85 86 87 87 87 85 84 85 86 85 84 82 81 79
78 79 79 80 80 81 83 84 85 86 88 89 89 88 86 86 86 84 83 81 79 81
78 79 80 80 81 83 84 86 87 87 88 89 90 91 87 86 85 82 82 82 82 82
78 79 80 81 81 81 83 84 86 87 88 87 91 64 63 77 82 82 81 78 79 80
77 77 78 81 81 82 81 82 82 85 87 86 86 55 57 63 83 81 79 78 76 77
78 77 78 80 80 80 81 80 81 84 85 85 76 52 53 59 82 79 79 78 78 78
77 76 77 79 77 79 80 80 81 84 83 79 70 49 53 64 79 78 79 81 81 81
77 77 77 77 76 77 77 77 81 79 81 66 73 47 51 61 83 79 80 80 76 56
73 74 75 73 74 76 76 73 72 74 74 75 72 63 47 49 75 81 79 77 75 74

GFSNIL_sfc_temp_060.txt.gz
Temp
73 73 73 73 72 75 72 68 70 72 70 71 74 72 73 73 78 79 78 76 76 75
73 72 72 71 71 74 75 77 75 75 71 72 74 77 76 80 79 79 77 76 75 76
72 73 73 72 71 72 73 74 76 76 78 79 79 80 80 79 79 77 77 77 75 75
73 74 74 73 73 73 74 74 76 77 78 80 79 80 79 78 78 77 76 76 75 75
73 73 72 72 73 75 74 76 77 78 79 80 80 79 78 78 80 78 75 76 75 75
71 72 70 71 72 74 75 76 77 79 79 81 81 80 79 79 78 78 77 76 76 75
71 71 72 72 72 73 75 75 77 78 80 81 82 82 80 79 77 77 78 77 77 77
73 73 73 73 73 73 73 76 78 78 80 80 81 84 79 79 78 77 77 77 78 76
73 75 73 72 72 72 73 74 76 78 79 78 83 68 64 74 78 77 76 75 75 71
67 74 73 73 73 72 71 72 73 75 77 77 78 55 58 63 77 76 75 74 73 73
67 72 73 73 71 70 71 71 72 75 76 76 75 53 54 60 76 75 75 74 73 72
63 70 71 71 70 70 71 71 73 75 76 75 66 50 53 68 75 74 73 74 74 72
71 69 69 69 69 70 71 71 74 73 76 65 67 48 53 67 76 71 72 71 66 56
67 68 68 68 67 67 68 69 69 72 73 71 66 57 48 54 74 74 73 73 69 64

GFSNIL_sfc_temp_063.txt.gz
Temp
65 64 65 67 67 65 68 66 69 69 71 71 70 67 67 66 68 65 63 62 62 69
64 64 64 66 67 66 68 70 69 69 69 68 69 69 67 65 68 65 66 69 70 66
65 65 65 64 65 65 65 66 69 69 69 68 69 70 68 67 69 69 72 75 75 72
64 65 65 65 65 66 67 67 70 71 71 72 69 69 68 67 69 70 72 74 73 72
66 65 65 64 65 67 67 69 71 71 72 73 74 72 69 70 73 74 74 74 72 73
62 63 64 65 65 66 67 70 69 72 73 74 74 74 76 76 77 76 74 73 71 72
61 62 65 67 66 66 68 69 69 70 72 74 75 76 75 76 75 75 73 73 72 71
62 63 63 64 65 65 66 70 71 71 72 73 75 77 75 74 75 73 70 72 73 71
62 63 62 64 64 65 65 68 70 71 72 72 76 65 60 70 73 69 70 70 70 69
63 63 61 64 65 63 62 64 67 70 71 72 71 59 57 57 72 70 69 69 66 66
63 63 62 64 63 61 63 65 66 68 69 70 72 57 53 55 72 69 68 68 66 65
62 62 62 61 62 61 60 63 65 66 69 67 68 52 50 54 71 67 67 68 67 66
62 60 59 60 62 61 60 64 66 63 65 65 67 53 47 55 69 66 66 64 62 57
61 59 57 60 62 55 57 59 60 62 63 65 66 55 49 52 67 66 65 63 61 59

GFSNIL_sfc_temp_069.txt.gz
Temp
60 59 59 60 60 60 61 63 65 65 65 66 68 68 67 67 67 67 68 67 68 69
58 58 59 59 58 58 59 63 63 64 64 64 65 67 67 67 67 67 67 68 68 65
58 58 58 58 58 58 59 60 61 62 63 64 64 65 64 64 65 64 67 67 66 65
58 58 58 57 58 58 58 60 61 62 63 63 64 64 64 63 65 64 65 65 66 65
57 57 57 57 58 58 59 60 62 62 63 64 64 64 64 65 67 65 65 66 67 67
57 57 57 57 57 58 58 59 60 62 62 63 64 64 64 66 68 66 67 67 68 68
57 57 57 57 58 59 59 60 60 60 63 63 64 65 65 65 64 66 68 68 68 69
55 56 56 57 58 59 59 60 60 61 61 62 63 67 63 63 63 63 66 67 69 71
56 56 56 56 56 56 57 58 59 59 60 60 65 59 56 58 61 62 63 65 68 69
57 57 56 57 56 55 54 54 55 56 57 57 58 54 53 54 59 60 61 63 65 67
58 58 57 56 56 55 52 52 52 54 55 56 59 53 51 52 55 58 60 62 64 66
58 58 57 57 58 52 52 52 52 55 54 54 55 51 50 51 57 58 59 63 65 67
58 58 56 57 56 52 52 56 57 58 56 54 57 51 49 50 56 57 59 62 64 54
57 57 56 55 54 53 50 52 51 53 54 54 56 56 47 45 55 58 60 62 63 61

GFSNIL_sfc_temp_072.txt.gz
Temp
61 61 61 61 62 63 64 65 67 67 67 68 69 69 69 68 68 68 67 68 67 69
59 59 60 60 60 61 61 64 65 65 65 66 67 68 69 67 68 68 68 68 67 66
58 59 59 58 59 60 60 62 63 64 65 65 66 67 67 66 67 67 68 68 67 66
58 59 58 58 58 59 59 61 62 63 64 65 65 66 65 65 65 65 65 66 66 66
58 57 57 57 58 59 59 60 62 63 65 66 66 65 65 65 67 66 65 67 67 67
56 55 55 56 58 58 59 60 61 63 64 65 66 65 65 66 67 67 67 67 68 68
56 56 56 57 58 59 60 61 61 62 64 64 65 66 66 66 65 65 67 67 68 69
58 56 57 57 58 59 60 61 63 63 64 64 65 67 65 65 65 63 64 65 68 69
56 56 56 57 57 58 59 60 60 61 62 62 65 56 54 58 62 63 63 63 65 66
57 57 56 57 57 56 56 57 57 58 59 59 60 53 51 52 60 60 60 61 63 64
58 57 57 56 55 54 54 54 54 56 57 58 60 51 49 51 58 59 60 62 63 63
58 57 56 56 54 54 53 53 54 56 56 56 56 50 49 51 58 59 60 63 64 64
59 58 57 57 56 53 54 55 57 56 55 54 55 48 48 51 58 58 60 62 63 52
57 57 58 57 57 55 52 54 53 54 54 54 54 55 47 47 55 58 60 61 62 64

GFSNIL_sfc_temp_075.txt.gz
Temp
77 78 78 76 79 79 80 80 79 77 76 77 77 77 75 73 69 66 65 67 69 70
73 74 75 74 75 78 77 79 77 77 76 76 77 78 76 74 71 70 67 69 72 75
73 74 74 73 73 73 74 75 75 75 75 75 76 76 75 76 76 72 73 77 74 75
73 73 73 73 73 73 72 73 74 75 75 75 75 75 74 75 75 75 75 75 75 75
72 72 71 72 72 72 73 74 75 75 75 76 76 75 75 76 77 76 75 76 75 75
69 70 71 71 71 72 73 73 74 75 75 76 76 76 75 76 76 76 77 76 75 76
69 69 70 71 71 72 73 73 74 74 77 77 77 77 77 76 75 75 76 75 75 76
71 71 70 70 71 72 72 73 74 74 76 76 76 78 75 75 75 74 74 74 75 76
69 70 69 69 69 70 71 72 73 74 75 73 77 56 57 65 74 73 73 72 74 75
66 67 68 69 69 69 69 69 70 71 72 72 72 54 53 53 72 71 71 71 71 73
66 65 67 67 67 67 68 66 67 68 69 70 71 52 50 51 70 70 70 70 71 71
64 64 65 66 65 66 65 66 66 68 68 67 69 50 48 55 70 69 68 70 71 72
65 64 64 64 64 65 65 66 69 67 67 63 68 50 47 56 71 67 68 69 70 53
62 62 63 63 64 63 63 66 65 66 67 66 65 65 46 46 67 68 68 70 71 74

GFSNIL_sfc_temp_078.txt.gz
Temp
82 85 85 84 89 89 90 89 86 83 84 84 85 84 82 82 82 81 78 76 75 72
83 82 85 85 84 88 88 91 87 85 83 84 84 84 82 83 81 81 77 78 75 74
78 79 82 84 82 84 84 86 84 83 83 82 83 83 80 81 81 79 79 80 76 75
80 81 81 81 81 82 81 82 82 82 82 82 81 81 79 79 80 79 78 79 77 76
79 80 79 80 81 81 80 81 82 83 82 82 82 80 79 80 82 80 79 79 80 80
77 77 77 79 79 80 80 80 82 82 82 82 82 81 81 82 82 81 81 81 80 80
74 75 77 79 78 79 81 80 81 81 83 83 83 82 82 82 81 81 81 81 80 81
74 73 75 78 79 80 80 81 82 81 82 82 83 84 82 81 80 79 79 79 81 81
73 77 76 76 77 78 79 80 81 80 81 80 84 57 62 74 80 79 78 77 79 80
68 70 75 77 77 76 75 77 77 79 80 79 80 54 55 57 78 77 77 76 76 78
63 67 70 74 74 74 74 74 75 77 78 78 78 52 50 53 77 76 76 76 76 75
55 59 66 70 71 72 72 73 74 76 76 75 75 50 48 57 75 75 75 76 77 77
68 59 59 64 66 69 71 72 76 75 74 69 74 49 47 57 77 75 76 75 75 58
68 68 69 68 67 67 67 71 69 72 73 74 72 68 47 46 73 76 76 77 77 80

GFSNIL_sfc_temp_084.txt.gz
Temp
74 77 78 75 76 73 74 74 77 78 79 78 79 78 78 77 77 76 75 74 74 76
74 73 77 77 76 77 77 79 77 78 77 78 78 78 77 77 76 76 75 74 73 72
74 74 76 76 75 75 77 80 79 79 77 78 78 78 76 74 75 74 75 73 72 71
72 75 74 73 76 76 76 79 80 80 79 76 77 76 75 74 75 73 73 74 74 73
71 73 70 71 75 75 76 79 80 67 70 78 73 69 73 73 75 74 74 74 74 74
70 69 67 69 73 75 75 76 68 67 63 61 63 64 65 74 77 76 75 75 74 74
67 68 65 68 72 73 74 69 63 64 65 63 61 61 67 74 75 75 75 74 73 73
68 68 67 67 68 72 66 64 65 62 63 67 63 67 70 71 72 73 73 73 74 73
69 70 66 65 62 58 62 62 66 66 64 63 70 61 60 69 72 72 71 71 72 69
64 67 67 65 61 58 59 64 67 70 70 71 70 58 57 63 72 71 70 70 70 72
64 63 67 63 59 58 57 60 70 70 71 71 70 55 55 60 72 71 71 70 69 69
62 63 63 64 60 60 56 57 69 72 71 70 62 51 55 65 71 70 69 71 71 70
59 60 61 62 58 58 57 56 65 71 71 63 64 48 54 66 74 68 69 69 69 59
56 57 60 57 61 55 56 57 58 65 69 67 62 56 49 56 71 70 69 69 68 70

GFSNIL_sfc_temp_087.txt.gz
Temp
65 64 66 69 72 68 69 75 74 71 73 70 69 71 71 78 76 77 77 76 77 74
64 64 66 68 71 73 71 74 75 72 73 72 71 72 74 71 73 76 75 75 73 72
64 64 64 64 65 69 71 72 74 76 73 75 75 75 74 73 73 72 72 71 70 70
66 63 63 62 63 66 68 71 74 74 74 72 74 73 72 71 72 72 72 71 71 70
62 61 61 60 61 63 64 70 74 74 73 72 72 65 66 71 73 66 71 72 71 71
62 60 59 58 58 61 63 67 70 71 66 63 67 62 62 62 62 62 60 66 69 70
57 59 61 59 58 59 60 60 65 61 61 61 62 62 63 61 61 59 59 62 65 67
57 58 58 59 58 58 58 60 63 60 60 60 60 63 61 62 63 61 61 64 70 68
56 57 57 57 58 56 56 58 61 59 61 58 62 54 54 62 64 65 66 67 67 64
53 54 56 58 57 55 54 54 56 57 61 59 61 52 51 55 64 65 67 66 63 69
52 52 54 55 54 55 54 54 55 56 59 59 63 52 55 53 63 66 64 64 63 66
51 51 54 53 54 54 54 55 54 56 58 58 61 52 50 53 65 64 63 66 67 66
50 50 50 53 50 53 54 56 57 57 57 58 61 50 49 57 70 63 62 65 64 58
48 48 50 52 51 49 52 55 55 55 55 57 60 53 52 57 70 65 65 66 62 61

GFSNIL_sfc_temp_093.txt.gz
Temp
56 57 57 59 61 59 59 61 62 63 64 66 67 68 68 68 68 68 65 64 63 62
56 56 57 57 57 60 59 63 61 62 62 63 65 66 67 67 67 67 66 66 64 62
55 55 55 55 54 56 59 59 61 61 61 60 61 63 65 66 67 65 65 64 64 63
52 53 54 52 53 54 55 58 60 59 59 60 60 61 62 64 66 66 65 64 63 63
54 55 54 52 52 53 53 56 58 59 60 61 61 61 62 63 64 64 63 63 62 65
52 52 52 52 50 52 53 55 56 58 57 59 59 59 60 63 64 64 63 64 64 65
48 50 51 51 51 52 54 53 56 57 58 59 59 60 61 62 63 64 66 66 64 62
47 48 49 50 50 51 52 53 55 56 58 58 58 61 60 60 62 62 62 62 63 64
47 47 48 49 49 50 49 50 52 54 56 56 57 55 53 56 60 62 62 60 61 63
47 47 47 48 48 48 48 48 48 51 55 55 55 52 49 50 56 60 60 60 61 61
47 46 46 46 45 46 47 45 46 48 53 54 55 49 47 48 54 58 58 59 60 59
47 46 46 44 44 45 45 46 48 49 52 52 53 49 46 48 55 57 57 58 59 60
47 46 45 44 44 44 45 46 47 49 53 53 53 49 45 50 55 56 56 59 59 54
47 46 46 45 44 43 43 45 46 48 51 53 53 53 46 48 53 55 56 59 57 56

GFSNIL_sfc_temp_096.txt.gz
Temp
54 54 54 55 56 58 59 61 61 62 64 65 67 68 68 68 68 69 68 68 67 68
53 53 53 53 54 56 57 61 62 62 62 64 65 66 66 66 67 68 68 67 67 67
52 53 53 54 53 54 56 57 58 60 61 62 62 63 63 64 66 66 67 67 66 66
51 52 52 52 52 53 54 55 57 59 60 61 61 61 60 61 64 65 65 66 66 66
51 50 50 50 51 52 52 54 56 57 58 60 60 61 61 61 63 63 64 65 65 65
48 48 47 48 49 50 50 52 53 54 56 58 59 60 60 60 62 62 64 64 65 65
47 47 47 47 48 48 49 49 50 52 55 56 58 59 60 60 60 61 62 64 64 65
46 47 49 48 48 48 49 50 51 52 53 53 55 58 58 59 59 60 60 62 64 65
47 49 48 48 48 48 48 48 49 49 50 50 54 53 53 55 58 60 60 60 62 64
48 47 48 49 48 47 46 46 46 48 48 49 51 50 49 53 56 57 58 59 60 62
47 47 48 48 47 47 46 45 44 45 47 47 50 49 48 51 55 55 56 58 60 61
47 46 46 46 46 46 44 44 44 46 47 47 49 48 47 47 53 55 56 59 60 61
46 45 45 45 46 46 45 44 45 45 46 48 49 49 45 46 52 55 55 58 59 52
45 44 46 46 46 45 44 44 44 45 47 48 49 50 46 45 54 54 55 56 57 59

GFSNIL_sfc_temp_102.txt.gz
Temp
70 73 73 73 71 71 73 75 74 72 72 73 74 75 75 78 80 79 80 78 78 83
70 68 68 67 67 70 70 73 71 70 69 70 71 72 72 75 76 78 78 77 78 79
68 68 67 66 65 66 66 67 66 66 67 67 68 69 69 72 74 75 78 79 76 77
66 66 66 65 65 65 64 64 64 65 65 65 66 67 66 67 69 70 73 74 75 75
65 65 64 64 64 64 63 64 63 63 63 63 64 64 63 62 65 67 69 72 72 73
64 63 62 62 63 63 62 62 62 61 60 59 60 59 59 60 62 63 65 68 70 70
63 62 62 62 62 61 59 57 57 57 57 57 56 55 57 57 56 59 60 63 68 70
62 62 62 59 57 58 58 58 57 55 56 55 55 55 54 55 54 55 55 57 60 66
62 61 59 58 57 57 58 57 56 58 58 54 53 51 50 51 52 52 53 54 57 61
61 61 59 57 57 56 56 56 54 57 53 56 52 48 47 48 50 48 50 52 53 57
62 59 59 59 59 55 53 50 51 53 55 54 54 48 46 46 50 48 50 51 53 54
58 56 58 56 53 54 50 47 50 53 56 54 53 47 45 46 50 48 49 53 56 56
55 55 52 51 49 50 47 48 49 52 54 53 50 48 44 46 48 48 50 50 52 50
55 54 52 52 52 48 47 49 52 53 51 53 52 53 46 45 50 48 49 51 53 59

GFSNIL_sfc_temp_105.txt.gz
Temp
74 77 76 76 73 72 74 73 74 74 73 73 74 74 74 75 76 76 78 76 77 80
73 71 71 70 70 73 71 73 71 70 69 70 71 71 71 72 72 73 74 75 75 77
71 71 70 70 68 68 69 69 68 67 67 68 68 68 68 69 70 70 73 75 73 74
70 70 69 68 68 68 67 67 67 67 67 66 66 66 65 64 65 65 66 69 69 69
69 69 68 67 67 67 66 67 66 65 64 64 63 61 61 61 62 61 62 64 65 66
68 67 66 66 66 66 65 64 63 61 59 58 59 58 59 58 57 58 58 59 59 63
66 66 66 66 65 64 62 60 61 60 60 60 60 59 59 58 57 58 58 58 61 61
67 66 66 65 63 62 62 62 62 61 60 60 57 60 57 58 57 55 54 57 59 59
66 66 64 63 61 60 59 59 59 59 59 55 57 54 51 54 56 54 53 52 56 58
65 64 63 64 61 59 58 60 58 57 58 55 57 52 48 49 54 52 51 52 54 55
65 64 63 61 60 59 59 57 56 54 52 53 57 51 47 47 53 52 51 51 53 52
62 60 59 56 56 57 56 53 51 51 52 55 56 50 46 47 52 51 51 54 56 55
58 57 55 54 56 55 56 52 53 53 56 56 57 52 47 48 56 51 53 54 53 50
54 54 55 55 56 56 52 55 54 54 57 57 56 59 49 46 57 56 52 52 53 55

GFSNIL_sfc_temp_108.txt.gz
Temp
71 71 70 68 68 67 67 68 68 68 66 66 66 66 66 67 67 67 68 67 69 69
69 69 68 68 68 68 66 68 67 66 65 65 65 64 64 64 64 65 65 66 66 68
69 69 68 67 66 65 65 65 64 64 64 64 64 63 62 62 63 62 62 64 63 64
69 68 68 66 66 65 64 64 64 64 63 61 60 60 59 58 59 59 59 60 60 60
68 67 66 65 65 65 63 63 62 62 61 60 60 58 57 56 57 57 56 56 57 57
67 66 64 64 64 64 62 61 61 60 59 59 59 58 57 57 57 56 55 55 55 55
65 65 64 64 64 62 62 60 60 60 60 59 59 59 58 57 56 56 57 56 56 55
66 66 65 64 63 62 61 60 60 59 58 58 59 60 56 55 55 54 54 55 55 55
66 65 64 62 62 61 60 59 58 58 58 57 58 53 51 53 53 54 54 53 54 54
63 63 62 62 61 58 57 57 56 56 56 54 54 50 48 50 53 53 53 53 52 52
61 61 60 59 57 55 55 54 54 55 54 53 54 50 48 48 52 53 53 52 52 51
55 56 56 55 53 55 54 55 54 55 54 54 55 50 48 49 54 55 54 54 53 53
53 53 52 52 53 53 54 54 55 55 55 55 55 51 48 48 54 53 52 55 55 51
49 50 51 53 53 53 54 53 52 53 55 56 56 55 48 47 50 51 51 52 54 57

GFSNIL_sfc_temp_111.txt.gz
Temp
60 59 58 58 57 57 57 57 58 59 59 60 60 60 59 58 59 62 61 59 61 61
60 59 58 58 57 57 57 61 59 59 58 58 59 58 57 56 56 58 58 58 57 59
59 59 58 57 56 56 56 57 57 57 56 56 56 55 53 52 54 54 56 58 56 57
58 58 57 56 56 56 56 56 56 56 55 55 54 54 52 51 52 53 52 53 55 55
58 57 56 56 56 56 54 55 55 55 55 55 55 53 52 51 53 53 54 54 52 53
56 56 55 55 55 55 55 54 54 54 53 54 54 53 52 52 54 52 55 55 54 53
55 55 55 55 55 55 55 54 53 53 53 54 55 55 55 57 54 52 53 55 55 53
56 56 55 55 55 54 53 53 53 53 54 55 53 56 51 51 51 50 50 51 53 53
56 56 55 54 53 51 51 50 51 54 55 50 54 51 50 51 49 49 50 49 52 54
54 53 52 52 50 49 48 50 54 54 49 50 51 49 48 50 51 53 52 52 51 52
50 50 51 49 48 50 54 53 53 51 53 52 52 49 47 48 52 52 53 52 52 52
48 48 48 48 50 52 52 52 52 54 53 52 54 49 47 47 51 50 50 52 54 55
46 45 47 49 50 52 52 52 53 52 50 50 52 49 46 46 47 45 46 48 50 50
47 46 49 50 51 50 52 52 52 48 48 48 49 50 44 44 43 43 42 43 45 49

GFSNIL_sfc_temp_114.txt.gz
Temp
56 55 55 55 54 53 53 54 55 56 56 57 57 57 55 54 54 55 54 54 55 55
56 55 54 54 54 54 54 59 56 55 55 55 55 55 53 51 52 52 51 51 52 51
55 55 55 54 53 54 53 54 54 54 53 53 54 53 51 50 51 50 50 53 51 51
55 55 54 54 53 53 53 53 54 55 54 53 53 52 50 49 50 51 51 51 51 51
54 54 53 54 53 53 53 53 53 54 53 53 53 52 50 50 52 51 51 51 51 52
53 53 53 53 53 53 53 52 52 52 52 52 52 51 50 50 51 51 51 51 50 52
51 52 52 53 52 51 51 51 50 51 51 52 51 51 52 51 49 49 51 51 51 51
51 52 51 50 49 50 50 50 50 50 50 50 51 54 52 53 53 52 51 51 51 51
50 50 49 49 48 48 48 48 49 49 49 48 52 50 50 51 52 52 51 50 51 51
48 48 47 48 47 46 46 47 47 47 51 48 48 48 48 49 51 51 50 51 52 53
46 46 46 45 45 45 45 46 46 49 52 48 50 48 46 46 50 49 49 50 51 51
44 44 43 44 48 46 45 49 47 48 48 47 48 46 45 45 46 46 47 49 50 49
45 46 46 48 48 50 50 50 52 49 47 48 46 46 44 44 43 42 44 45 47 47
45 44 47 47 48 50 49 45 47 44 46 46 45 44 43 42 41 41 41 43 46 49

GFSNIL_sfc_temp_117.txt.gz
Temp
56 54 53 53 53 52 52 52 54 54 54 54 55 54 52 51 51 51 50 50 50 50
54 54 53 52 52 52 52 55 54 54 53 53 54 53 51 49 50 49 48 48 48 48
54 53 52 52 52 52 52 53 53 53 52 52 52 51 50 48 49 49 49 51 48 48
53 53 53 53 52 52 51 52 52 53 53 52 51 51 49 48 49 49 49 50 50 51
52 53 52 52 52 52 51 51 52 52 52 52 51 50 49 49 50 49 49 50 50 50
50 51 51 51 51 51 50 50 51 51 51 51 50 49 49 49 49 49 50 51 50 50
47 48 48 49 49 49 49 49 49 49 50 50 50 50 50 50 52 52 53 52 52 51
46 47 47 47 47 48 48 48 49 48 49 48 49 52 52 53 52 50 50 51 53 51
45 46 45 46 46 46 46 47 47 47 47 46 50 49 49 50 50 47 50 49 52 53
45 45 44 45 45 44 44 44 45 45 46 48 46 47 46 48 47 48 48 49 49 51
42 42 43 42 42 43 43 44 44 45 46 46 47 46 45 46 45 44 45 47 48 48
41 41 41 42 44 44 42 44 48 50 48 44 44 45 43 43 44 43 43 46 47 47
45 45 44 46 44 47 48 49 49 47 44 46 41 43 42 42 42 40 42 43 45 47
44 43 45 45 46 45 45 46 45 43 40 40 41 40 42 41 40 40 39 41 44 49

GFSNIL_sfc_temp_123.txt.gz
Temp
63 62 61 61 62 62 65 66 65 65 65 65 66 65 64 67 66 63 64 61 61 63
61 61 60 60 62 65 64 64 63 64 64 64 64 64 63 65 63 63 63 62 62 63
60 61 63 63 62 63 64 64 64 64 64 63 64 64 63 64 64 61 63 63 61 61
65 64 64 63 63 63 63 63 63 63 63 63 63 63 62 61 62 61 61 62 61 61
63 64 63 63 63 63 63 63 62 63 63 63 62 62 61 60 61 60 60 61 60 61
62 62 62 62 62 63 63 63 63 63 62 61 61 60 60 60 60 60 60 60 59 59
59 60 60 60 61 61 61 61 61 61 61 61 60 61 61 60 59 59 60 59 58 59
58 59 59 59 59 59 59 60 60 60 60 60 60 61 57 57 57 57 57 58 59 59
57 57 56 56 57 58 58 58 59 59 59 59 61 47 47 49 55 56 56 56 57 58
54 54 55 55 56 55 55 56 57 58 58 57 57 45 44 45 54 54 54 54 55 55
54 54 54 55 54 55 56 55 56 56 55 55 53 43 43 43 54 54 53 51 52 51
53 53 53 52 51 52 54 55 55 55 53 52 53 42 42 44 52 53 50 49 49 49
52 52 52 50 51 52 52 53 54 51 50 47 50 42 40 42 48 47 46 47 50 48
52 52 51 50 50 49 49 48 46 48 50 49 46 45 40 40 43 42 43 48 51 54